Location: Múnez
(40.6098°N, 4.9984°W)
Time: 22:24:40
(UTC+00:00)

Daily predictions for brighter satellites

Satellite Brightness Start Highest point End
(mag) Time Altitude Azimuth Time Altitude Azimuth Time Altitude Azimuth
Cosmos 2227 Rocket 3.4 18:12:36 10° NW 18:18:02 48° WSW 18:23:24 10° S
NOAA 6 4.4 18:15:35 10° S 18:20:43 75° WSW 18:25:54 10° NNW
Cosmos 1707 4.4 18:17:28 10° NNW 18:21:02 40° W 18:24:36 10° SSW
PSLV R/B 4.3 18:17:52 10° SE 18:21:14 35° ENE 18:24:35 10° N
Cosmos 2322 Rocket 3.6 18:17:40 10° SE 18:21:17 17° E 18:24:54 10° ENE
Cosmos 1726 2.7 18:18:05 10° SSE 18:21:24 35° E 18:24:45 10° NNE
Cosmos 1980 Rocket 2.5 18:21:17 10° SSW 18:26:53 72° WNW 18:32:31 10° NNE
CZ-4B R/B 3.7 18:22:38 10° SE 18:27:30 36° ENE 18:32:29 10° N
Cosmos 841 Rocket 3.5 18:24:28 10° NNW 18:29:37 65° ENE 18:34:42 10° SSE
Cosmos 1378 Rocket 3.9 18:27:04 10° N 18:31:12 41° ENE 18:35:17 10° SSE
Timation 2 Rocket 4.1 18:26:11 10° NNW 18:32:30 59° ENE 18:38:32 10° SE
ARGOS Delta rocket 4.2 18:28:38 10° NNE 18:33:38 47° E 18:38:20 10° S
DMSP B5D2-2 4.1 18:29:10 10° NNE 18:34:29 89° E 18:39:44 10° SSW
Meteor 2-14 Rocket 4.4 18:31:55 10° S 18:37:52 62° E 18:43:51 10° NNE
Cosmos 1733 Rocket 3.4 18:35:48 10° SSW 18:40:13 74° W 18:44:42 10° N
Cosmos 1850 Rocket 4.5 18:35:16 10° SSW 18:40:26 67° WNW 18:45:42 10° NNE
COBE Rocket 4.0 18:40:51 10° SSE 18:45:33 52° ENE 18:50:10 10° N
USA 215 4.1 18:40:36 10° NE 18:46:51 50° NNW 18:53:04 10° WSW
Cosmos 2221 Rocket 3.7 18:44:44 10° N 18:49:17 88° W 18:53:51 10° S
Cosmos 2279 Rocket 4.2 18:43:38 10° N 18:49:54 77° W 18:56:08 10° S
Cosmos 2278 3.8 18:44:36 10° SSW 18:50:18 86° WNW 18:56:01 10° NNE
Cosmos 1844 Rocket 4.2 18:46:38 10° N 18:50:30 18° NE 18:52:59 14° E
SL-16 R/B 2.5 18:45:50 10° S 18:51:10 45° ESE 18:56:33 10° NE
PAYLOAD B 4.2 18:47:56 10° SSE 18:53:27 88° ENE 18:58:59 10° NNW
Meteor 2-21 Rocket 4.4 18:54:36 10° S 19:00:34 65° E 19:06:33 10° NNE
SJ-6B 4.5 19:02:07 15° ENE 19:02:07 15° ENE 19:03:58 10° NNE
HJ-1C 3.2 18:59:41 10° SSE 19:02:43 53° ENE 19:05:46 10° N
Cosmos 1437 Rocket 2.7 19:00:02 10° S 19:03:40 53° E 19:07:19 10° NNE
COSMO-SKYMED 1 4.1 19:00:14 10° N 19:04:17 40° WNW 19:08:20 10° SW
Cosmos 2263 Rocket 2.4 19:04:30 10° NNW 19:10:12 74° WSW 19:15:52 10° SSE
Meteor 1-24 Rocket 4.0 19:07:18 10° N 19:12:16 39° ENE 19:16:12 16° SE
IRIDIUM 104 4.4 19:08:40 10° S 19:13:53 85° W 19:19:07 10° N
Meteor 2-16 Rocket 4.4 19:08:26 10° S 19:14:30 72° E 19:20:39 10° NNE
OAO 2 Rocket 3.9 19:09:54 10° WSW 19:14:33 44° S 19:17:05 24° SE
Feng Yun 1-1 Rocket 4.2 19:09:59 10° SSE 19:15:21 58° ENE 19:20:40 10° N
SL-4 R/B 2.4 19:11:09 10° NW 19:15:36 61° NNE 19:17:52 29° ESE
Cosmos 2084 Rocket 4.4 19:16:12 10° NNW 19:19:29 26° NE 19:19:51 26° NE
Cosmos 1814 Rocket 3.9 19:14:51 10° NNW 19:20:06 89° WSW 19:25:16 10° SSE
USA 267 3.2 19:14:27 15° SE 19:20:07 90° NE 19:26:43 10° NW
Okean-O 3.7 19:20:29 25° ENE 19:20:29 25° ENE 19:24:01 10° NNE
CZ-4 R/B 1.3 19:17:20 10° SSE 19:21:30 73° ENE 19:25:40 10° N
ISS -2.7 19:19:36 10° WNW 19:22:49 42° SW 19:24:26 24° SSE
IGS 5A 4.4 19:24:37 28° ENE 19:24:37 28° ENE 19:27:46 10° N
DNEPR-1 R/B 3.8 19:20:19 10° SSW 19:24:41 56° ESE 19:29:55 10° NE
Cosmos 2208 Rocket 4.2 19:19:53 10° N 19:25:11 54° ENE 19:28:16 25° SE
Meteor 1-22 Rocket 4.0 19:20:35 10° S 19:25:54 68° E 19:31:28 10° NNE
Cosmos 2333 Rocket 3.9 19:23:02 10° SSE 19:24:21 15° SE 19:24:21 15° SE
Cosmos 2227 4.1 19:22:09 10° NNW 19:27:49 90° S 19:33:05 12° SSE
Cosmos 1908 Rocket 3.9 19:24:22 10° SSW 19:28:38 64° W 19:32:57 10° N
Cosmos 1428 Rocket 4.4 19:23:57 10° S 19:30:04 69° E 19:36:16 10° NNE
CSL-04 Debris 4.4 19:28:02 28° ESE 19:30:25 45° ENE 19:35:32 10° N
Helios 1B 4.4 19:27:42 10° NNE 19:32:02 73° ESE 19:36:20 10° S
Cosmos 1627 Rocket 4.4 19:27:32 10° S 19:33:33 66° E 19:39:37 10° NNE
Cosmos 2195 Rocket 4.4 19:27:36 10° S 19:33:47 78° E 19:40:06 10° N
Cosmos 2360 Rocket 2.3 19:30:18 10° S 19:35:41 48° ESE 19:41:06 10° NE
Cosmos 1782 Rocket 3.4 19:32:30 10° S 19:36:49 80° E 19:41:11 10° N
YAOGAN 1 3.6 19:36:51 10° S 19:41:00 46° W 19:45:10 10° NNW
USA 81 4.0 19:35:56 10° N 19:41:08 57° E 19:43:22 33° SSE
Cosmos 1025 Rocket 3.1 19:40:47 10° N 19:44:51 55° ENE 19:44:51 55° ENE
Okean O Rocket 2.3 19:40:52 10° S 19:45:06 52° W 19:49:24 10° NNW
Cosmos 968 Rocket 4.3 19:41:48 10° SW 19:46:54 51° WNW 19:52:00 10° N
Lacrosse 4 Rocket 1.4 19:44:05 10° SSW 19:48:08 79° WNW 19:50:17 28° NNE
Cosmos 2026 Rocket 3.8 19:44:02 10° S 19:50:05 87° E 19:56:11 10° N
USA 186 3.7 19:55:51 24° N 19:55:51 24° N 19:57:21 10° N
CSL-04 Rocket 3.5 19:55:05 51° SE 19:56:17 68° ENE 20:01:40 10° N
BREEZE-M R/B 4.2 19:56:17 10° W 19:58:03 34° NNW 19:58:03 34° NNW
Meteor 2-5 Rocket 3.9 19:54:57 10° NNW 20:00:27 67° W 20:05:38 12° S
Cosmos 1470 4.0 19:58:12 10° SSW 20:01:49 40° WNW 20:05:27 10° N
Cosmos 2322 Rocket 2.6 19:59:04 10° SW 20:04:43 64° WNW 20:10:24 10° NNE
Cosmos 1553 Rocket 4.0 19:59:39 10° N 20:05:57 59° E 20:06:34 57° ESE
COSMOS 2455 4.4 20:01:30 10° S 20:03:25 21° S 20:03:25 21° S
Cosmos 1975 Rocket 3.2 20:05:56 10° NNW 20:10:19 70° W 20:10:19 70° W
NOSS 3-3 (A) 3.6 20:12:56 10° SSW 20:18:24 88° NW 20:20:03 50° NNE
NOSS 3-3 (C) 3.6 20:13:02 10° SSW 20:18:30 89° WNW 20:19:58 54° NNE
Aureole 1 Rocket 4.0 20:14:57 10° SSW 20:22:38 78° ESE 20:28:50 10° NNE
IRS-1C Rocket 4.1 20:24:43 79° W 20:24:43 79° W 20:29:55 10° NNW
Cosmos 1844 Rocket 2.8 20:29:19 10° NNW 20:34:40 71° W 20:34:40 71° W
Resurs 01 Rocket 4.0 20:38:53 15° N 20:38:53 15° N 20:39:43 10° N
SL-16 R/B 4.2 20:30:42 10° WSW 20:35:27 27° NW 20:40:14 10° N
Cosmos 2278 Rocket 4.4 20:46:16 10° N 20:47:32 15° NNE 20:47:32 15° NNE
ATLAS 5 CENTAUR R/B 4.4 20:42:27 10° WSW 20:56:51 22° SSW 20:58:17 22° S
Cosmos 2360 Rocket 4.1 21:15:18 10° WSW 21:19:55 25° NW 21:24:34 10° N
